Погода в Великом Самборе

Украина / Сумская область     51°03′17″N   33°08′05″E
темп.,
°C
ветер,
м/с
пор.,
м/с
влажн.,
%
обл.,
%
осадки,
мм/ч
давл.,
гПа
погр.,
м
24 мая, вт
вт2400:00+7ссз227510 0.0 101010
03:00+6сз228121 0.0 101117
06:00+6ссз35845 0.0 1012111
09:00+12сз45590 0.0 1012437
12:00+15ссз56555 0.0 10121681
15:00+14сз366696 0.1 1012314
18:00+15ссз466062 0.2 1013963
21:00+10сз227160 0.2 101410
25 мая, ср
ср2500:00+9зсз35705 0.0 101578
03:00+8сз34875 0.0 101658
06:00+8сз35875 0.0 101798
09:00+14зсз456895 0.0 1018333
12:00+18зсз5557100 0.0 10181119
15:00+19зсз465249 0.2 10172197
18:00+18з356284 0.0 1017450
21:00+14юз346894 0.0 101767
26 мая, чт
чт2600:00+11ююз347112 0.0 101744
03:00+10ююз4117794 0.0 1016208
06:00+11ююв51384100 0.2 1013384
09:00+12ю71488100 2.0 1011800
12:00+11ююз71396100 6.3 1009694
15:00+13з91392100 6.6 1009976
18:00+13сз916830 0.1 10111248
21:00+11з33915 0.1 101241
27 мая, пт
пт2700:00+10з514915 0.0 1012297
03:00+10зюз5149062 0.0 1012323
06:00+11зюз613915 0.0 1012447
09:00+15з7117484 0.0 1012863
12:00+17з7106467 0.1 10121656
15:00+18з7106159 0.2 10111710
18:00+18зюз4106963 0.1 10101343
21:00+15ююз6138199 0.1 1008346
28 мая, сб
сб2800:00+15юз61680100 0.1 1006568
03:00+12з51294100 4.6 1007731
06:00+11з4995100 3.3 1007526
09:00+12з698648 3.7 1008823
12:00+16з8115863 0.1 10081872
15:00+15зюз6116358 0.3 10091590
18:00+14з6116766 0.4 10101565
21:00+10зюз337894 0.4 101130